Location: Miri
(4.3833°N, 113.9833°E)
Time: 18:46:27
(UTC+08:00)

N. Korean satellite - Visible Passes

Search period start: 30 July 2021 00:00
Search period end: 09 August 2021 00:00
Orbit: 451 x 498 km, 97.2° (Epoch: 29 July)

Date Brightness Start Highest point End Pass type
(mag) Time Alt. Az. Time Alt. Az. Time Alt. Az.
30 Jul 6.9 05:14:34 10° NNE 05:17:59 62° E 05:21:23 10° S visible
31 Jul 9.0 04:47:58 10° NE 04:50:34 20° E 04:53:08 10° SSE visible
01 Aug 7.6 05:53:18 10° NNW 05:56:09 25° WNW 05:59:00 10° SW visible
02 Aug 6.3 05:25:20 10° N 05:28:46 80° W 05:32:10 10° SSW visible
03 Aug 8.3 04:58:17 10° NE 05:01:20 30° E 05:04:22 10° SSE visible
04 Aug 9.7 04:33:08 10° E 04:33:54 11° E 04:34:38 10° ESE visible
05 Aug 6.6 05:36:11 10° N 05:39:29 48° WNW 05:42:47 10° SSW visible
06 Aug 7.4 05:08:45 10° NNE 05:12:03 47° E 05:15:20 10° S visible
07 Aug 9.4 04:42:26 10° ENE 04:44:36 16° E 04:46:45 10° SE visible
08 Aug 7.3 05:47:08 10° NNW 05:50:10 30° WNW 05:53:11 10° SW visible
